FW0797 Weather Reports


Display with metric or nautical units.
time (UTC)temp
F
wind
direction
speed
MPH
gust
MPH
rain 1hr
in
rain 24hr
in
rain mn
in
humidity
%
barometer
mb
20181022071552 36 301 1.0 6.0 0.00 0.00 0.00 60 1016.7
20181022070209 36 351 1.0 6.0 0.00 0.00 0.00 59 1016.7
20181022064607 35 259 0.0 4.0 0.00 0.00 0.00 59 1016.6
20181022063115 36 260 0.0 4.0 0.00 0.00 0.00 59 1016.4
20181022061542 36 313 2.0 6.0 0.00 0.00 0.00 58 1016.3
20181022060034 36 340 1.0 6.0 0.00 0.00 0.00 57 1016.1
20181022054613 36 286 0.0 7.0 0.00 0.00 0.00 58 1016.2
20181022053109 36 73 1.0 7.0 0.00 0.00 0.00 58 1016.1
20181022051537 35 321 3.0 10.0 0.00 0.00 0.00 59 1015.8
20181022050025 35 293 0.0 7.0 0.00 0.00 0.00 61 1015.8
20181022044523 35 346 1.0 4.0 0.00 0.00 0.00 62 1015.7
20181022043027 35 274 0.0 6.0 0.00 0.00 0.00 63 1015.5
20181022041546 35 339 2.0 7.0 0.00 0.00 0.00 62 1015.2
20181022040013 35 305 2.0 10.0 0.00 0.00 0.00 62 1015.0
20181022034512 35 349 1.0 4.0 0.00 0.00 0.00 64 1015.0
20181022033026 34 302 3.0 8.0 0.00 0.00 0.00 64 1014.9
20181022031510 34 284 1.0 5.0 0.00 0.00 0.00 65 1014.8
20181022030013 34 211 0.0 2.0 0.00 0.00 0.00 66 1014.8
20181022024527 34 306 1.0 7.0 0.00 0.00 0.00 64 1014.7
20181022023003 34 301 2.0 6.0 0.00 0.00 0.00 64 1014.5
20181022021501 34 337 0.0 4.0 0.00 0.00 0.00 65 1014.4
20181022020213 34 335 0.0 3.0 0.00 0.00 0.00 64 1014.3
20181022014628 34 312 1.0 4.0 0.00 0.00 0.00 63 1014.1
20181022013147 34 316 1.0 5.0 0.00 0.00 0.00 63 1014.0
20181022010134 34 327 4.0 10.0 0.00 0.00 0.00 62 1013.5
20181022004608 34 335 3.0 9.0 0.00 0.00 0.00 62 1013.1
20181022003153 34 320 1.0 4.0 0.00 0.00 0.00 63 1013.0
20181021234611 35 350 2.0 6.0 0.00 0.00 0.00 60 1012.5
20181021233122 36 309 3.0 10.0 0.00 0.00 0.00 57 1012.4
20181021231545 36 295 6.0 17.0 0.00 0.00 0.00 55 1012.0
20181021230058 36 311 5.0 18.0 0.00 0.00 0.00 55 1011.5
20181021224544 37 302 7.0 16.0 0.00 0.00 0.00 54 1011.3
20181021223035 37 297 11.0 19.0 0.00 0.00 0.00 53 1010.8
20181021221522 38 326 13.0 23.0 0.00 0.00 0.00 52 1010.6
20181021220027 38 322 9.0 20.0 0.00 0.00 0.00 55 1010.3
20181021214530 38 345 12.0 23.0 0.00 0.00 0.00 54 1009.6
20181021213015 38 304 9.0 24.0 0.00 0.00 0.00 53 1009.5
20181021211514 39 316 14.0 23.0 0.00 0.00 0.00 52 1009.0
20181021210018 39 304 16.0 29.0 0.00 0.00 0.00 52 1008.8
20181021204505 39 324 12.0 26.0 0.00 0.00 0.00 52 1008.4
20181021203138 40 313 10.0 24.0 0.00 0.00 0.00 52 1008.1
20181021201617 41 340 8.0 19.0 0.00 0.00 0.00 51 1007.8
20181021200226 41 324 12.0 29.0 0.00 0.00 0.00 50 1007.4
20181021194602 41 352 14.0 24.0 0.00 0.00 0.00 50 1007.3
20181021193114 41 310 16.0 27.0 0.00 0.00 0.00 50 1006.9
20181021191559 42 323 11.0 31.0 0.00 0.00 0.00 50 1006.8
20181021190141 42 315 9.0 25.0 0.00 0.00 0.00 52 1006.8
20181021184643 41 302 13.0 30.0 0.00 0.00 0.00 52 1006.8
20181021183059 42 321 10.0 20.0 0.00 0.00 0.00 54 1006.7
20181021181628 42 317 16.0 27.0 0.00 0.00 0.00 53 1006.6
20181021180118 42 305 11.0 25.0 0.00 0.00 0.00 55 1006.5
20181021174626 42 328 14.0 31.0 0.00 0.00 0.00 53 1006.4
20181021173043 42 308 15.0 28.0 0.00 0.00 0.00 54 1006.4
20181021171601 42 334 15.0 29.0 0.00 0.00 0.00 54 1006.3
20181021164619 43 331 14.0 27.0 0.00 0.00 0.00 54 1006.1
20181021163054 43 341 13.0 28.0 0.00 0.00 0.00 54 1006.4
20181021161545 42 335 13.0 28.0 0.00 0.00 0.00 55 1006.5
20181021160036 42 325 11.0 23.0 0.00 0.00 0.00 56 1006.6
20181021154557 42 341 12.0 21.0 0.00 0.00 0.00 57 1006.6
20181021153050 41 295 8.0 20.0 0.00 0.00 0.00 58 1006.7
20181021151533 41 314 11.0 26.0 0.00 0.00 0.00 58 1006.5
20181021150051 42 326 6.0 18.0 0.00 0.00 0.00 60 1006.7
20181021144543 41 326 12.0 25.0 0.00 0.00 0.00 59 1006.6
20181021143033 41 278 8.0 17.0 0.00 0.00 0.00 60 1006.6
20181021141523 41 324 7.0 12.0 0.00 0.00 0.00 62 1006.4
20181021140030 41 325 8.0 16.0 0.00 0.00 0.00 65 1006.5
20181021134521 41 310 7.0 19.0 0.00 0.00 0.00 66 1006.4
20181021133019 41 312 13.0 20.0 0.00 0.00 0.00 65 1006.0
20181021131539 41 346 8.0 17.0 0.00 0.00 0.00 68 1005.8
20181021130008 41 338 11.0 21.0 0.00 0.00 0.00 67 1005.5
20181021124506 41 312 7.0 15.0 0.00 0.00 0.00 70 1005.2
20181021123149 42 326 5.0 10.0 0.00 0.00 0.00 73 1005.1
20181021121706 42 1 4.0 13.0 0.00 0.00 0.00 71 1005.0
20181021120113 42 318 10.0 19.0 0.00 0.00 0.00 68 1004.5
20181021114650 42 343 10.0 23.0 0.00 0.00 0.00 67 1004.3
20181021113120 42 335 10.0 15.0 0.00 0.00 0.00 70 1004.0
20181021111622 42 325 7.0 13.0 0.00 0.00 0.00 69 1003.6
20181021110103 42 309 11.0 18.0 0.00 0.00 0.00 67 1003.3
20181021104646 43 334 10.0 22.0 0.00 0.00 0.00 67 1003.2
20181021103144 43 331 12.0 20.0 0.00 0.00 0.00 68 1002.8
20181021101633 43 342 8.0 17.0 0.00 0.00 0.00 70 1002.6
20181021100122 43 330 7.0 12.0 0.00 0.00 0.00 70 1002.5
20181021094626 43 325 8.0 15.0 0.00 0.00 0.00 68 1002.1
20181021093121 43 335 7.0 11.0 0.00 0.00 0.00 71 1001.9
20181021091546 43 341 6.0 11.0 0.00 0.00 0.00 74 1001.7
20181021090135 43 347 6.0 12.0 0.00 0.00 0.00 76 1001.7
20181021084527 43 321 6.0 11.0 0.00 0.00 0.00 76 1001.2
20181021083041 43 323 6.0 11.0 0.00 0.00 0.00 75 1001.3
20181021081521 43 335 6.0 11.0 0.00 0.00 0.00 76 1001.0
20181021080049 44 348 7.0 16.0 0.00 0.00 0.00 74 1000.8
20181021074526 44 331 9.0 14.0 0.00 0.00 0.00 73 1000.8
20181021073047 44 332 7.0 11.0 0.00 0.00 0.00 77 1000.8